Theta_e
321 321 321 320 320 320 320 320 320 319 319 319 319 319 319 318 318 309 302 309 313 327 326 310 306 304 299 295 297 295 289 286 291 294 296 315 316 324 329 323 325 328 329 331 333
320 320 320 320 320 320 320 320 319 319 319 319 319 318 318 318 311 305 316 326 332 329 304 302 298 297 294 292 293 293 287 290 295 296 296 311 316 322 325 322 322 324 332 335 335
320 320 320 320 320 320 319 319 319 319 319 318 318 318 319 318 300 299 333 331 334 329 305 302 300 296 290 290 290 289 289 293 296 298 298 297 312 322 322 319 323 320 330 333 333
319 319 320 319 319 319 319 319 319 319 319 318 317 318 320 313 291 301 341 337 336 321 304 300 295 291 289 289 291 292 293 294 295 298 296 295 309 320 323 319 328 326 333 332 330
318 318 318 318 318 318 318 318 318 318 318 317 317 319 312 299 300 311 338 336 319 307 304 297 293 291 289 290 291 290 293 294 296 295 294 302 309 313 320 325 329 328 332 331 329
317 318 317 318 318 318 318 318 317 317 317 317 318 320 309 295 305 313 316 311 308 302 300 297 296 296 293 292 292 294 292 294 295 293 293 300 312 319 315 326 326 325 323 326 326
316 317 317 317 317 317 317 317 317 317 317 318 318 317 307 299 310 317 313 308 308 307 302 300 300 299 298 292 294 293 290 293 294 293 296 317 308 316 318 326 324 324 322 323 325
315 316 317 317 317 317 317 317 317 317 318 319 319 312 299 309 312 313 312 310 316 310 306 305 303 299 296 295 294 289 288 286 292 294 302 300 291 301 320 325 323 322 323 324 324
315 316 316 316 317 317 317 316 316 317 318 318 310 305 304 317 313 316 314 311 308 311 310 310 300 294 294 289 286 287 284 285 291 293 297 297 292 297 319 323 322 322 323 324 325
315 316 316 316 316 316 314 314 316 315 316 317 315 303 307 308 314 311 311 309 304 304 303 299 295 293 291 289 286 285 285 286 288 292 292 290 298 307 318 319 316 317 318 319 320
316 316 315 316 316 314 307 299 303 301 308 304 303 306 308 315 316 308 306 304 303 302 294 297 295 290 293 292 291 289 289 289 293 297 299 302 301 304 310 311 312 311 312 315 320
315 315 316 315 315 313 304 300 304 305 301 309 309 309 312 314 309 310 308 302 299 294 296 296 291 294 296 299 297 294 292 293 297 301 300 300 299 302 305 306 309 311 311 313 316
314 314 315 314 313 306 300 305 308 305 299 304 309 309 309 312 307 307 306 302 298 295 296 293 295 299 295 293 293 293 290 292 294 298 298 295 296 299 304 306 308 309 311 313 315
313 314 314 313 305 304 300 308 307 306 298 304 304 305 306 307 303 309 308 303 300 296 295 292 294 294 292 291 291 288 294 294 296 294 288 293 285 294 299 300 303 305 306 309 314
313 313 313 313 297 300 304 307 308 309 287 305 303 309 304 302 303 304 307 307 299 298 297 293 292 290 289 291 293 289 293 291 295 293 290 291 287 291 298 296 299 303 305 309 313
312 313 312 307 303 307 309 309 310 296 289 299 300 299 298 300 301 301 300 303 304 297 296 293 296 293 289 294 293 294 292 291 292 287 284 289 288 289 293 296 298 302 304 309 311
311 311 310 311 305 305 309 309 295 290 299 294 295 298 295 295 298 297 294 291 290 287 286 290 290 293 293 290 292 289 283 278 279 281 282 290 289 288 298 298 299 300 304 307 310
309 308 307 310 305 308 310 301 288 294 292 296 296 297 293 294 294 295 293 289 292 290 285 283 282 290 293 289 286 285 285 279 274 276 278 289 286 290 298 299 302 304 305 307 307
307 303 304 308 309 307 303 291 292 293 295 294 294 291 290 293 292 292 289 288 290 289 284 282 283 292 294 294 291 288 285 287 283 284 281 283 292 296 298 298 300 302 304 305 306
303 307 308 310 310 305 298 294 294 299 298 296 288 291 286 288 288 287 288 291 292 293 290 288 280 289 293 295 295 291 292 283 281 278 278 282 287 288 292 293 296 299 302 305 306
306 303 310 311 307 301 292 294 295 299 299 295 291 290 289 289 289 287 288 291 294 293 292 287 282 282 291 289 287 288 286 285 283 283 279 278 281 291 291 293 294 298 300 302 303
301 297 309 306 296 293 294 295 298 297 299 298 295 293 291 291 289 289 290 292 296 296 289 288 284 280 285 292 294 291 288 285 279 279 281 280 281 293 294 293 295 296 301 304 304
298 298 309 303 292 292 293 295 297 296 295 295 294 295 294 290 285 292 293 296 297 295 291 290 284 279 278 285 290 288 290 289 285 283 281 279 281 294 295 294 295 296 300 301 303
302 296 297 296 294 293 291 291 292 298 296 296 295 295 292 289 290 289 292 296 297 297 305 297 286 281 277 278 286 285 288 289 285 279 280 283 284 290 292 292 293 295 299 302 302
297 294 295 291 293 293 291 293 292 293 297 295 292 294 291 286 287 288 291 292 297 307 296 293 286 287 288 289 290 289 288 288 286 284 282 281 286 288 291 292 293 295 298 301 301
295 295 296 293 295 293 292 290 293 294 294 293 291 295 291 288 290 288 290 288 289 293 292 289 285 287 285 290 290 288 289 288 287 288 288 287 286 290 293 294 294 295 296 299 300
290 297 297 293 294 292 292 295 296 296 295 297 296 292 290 292 294 293 293 292 291 292 290 288 286 283 281 287 288 284 287 287 286 288 287 283 286 291 291 293 293 294 295 296 297
Wind_Speed
14 14 13 12 12 13 13 14 14 13 13 13 13 13 13 14 13 2 7 10 7 7 8 5 5 4 4 3 3 4 6 3 5 7 5 2 5 1 1 5 2 4 4 4 12
14 13 14 12 12 12 13 14 14 14 12 13 13 13 13 13 4 6 12 6 4 10 6 6 4 5 3 3 2 5 5 11 8 6 5 4 6 9 6 4 4 4 6 7 14
14 13 13 13 12 11 12 14 14 13 12 13 13 13 13 9 4 7 2 12 11 8 6 3 6 5 3 2 4 5 7 6 7 8 4 3 4 6 7 7 11 19 17 17 19
14 14 13 13 12 12 13 14 14 13 12 13 12 12 13 1 2 2 3 14 11 5 4 6 4 5 5 4 4 2 7 7 6 9 6 6 5 6 9 17 8 14 22 20 21
13 13 13 13 12 12 13 13 14 12 12 11 11 11 3 3 10 1 11 13 8 5 7 5 4 5 5 5 5 5 5 7 10 6 8 6 10 5 12 17 4 8 12 17 16
13 13 13 13 12 12 12 12 12 11 11 9 9 10 1 4 2 2 9 7 7 5 5 6 7 7 4 3 6 7 4 5 7 4 5 7 1 4 13 9 8 12 15 15 15
13 12 12 12 12 13 13 12 11 10 10 9 7 4 1 14 3 4 7 5 6 6 5 5 4 3 5 2 3 1 3 5 7 5 6 8 1 10 11 5 9 12 13 14 8
13 12 11 11 11 12 13 12 12 11 9 6 4 2 9 5 3 4 6 3 5 5 3 4 6 2 1 2 6 1 4 4 7 4 3 4 9 11 6 7 12 8 10 10 7
13 11 11 11 11 11 12 14 15 10 5 2 1 2 10 1 3 2 6 4 6 5 4 5 4 2 4 3 5 6 0 2 8 1 5 3 10 11 2 6 5 6 7 6 2
14 11 10 10 10 10 13 13 2 5 3 4 3 3 5 3 3 4 3 3 2 4 5 4 6 4 5 5 2 2 4 4 4 5 2 3 11 15 10 11 10 11 10 9 8
15 12 11 10 9 8 7 2 3 3 1 6 4 5 6 7 3 3 5 4 3 8 5 5 9 4 6 3 0 3 3 3 4 4 9 8 15 18 16 14 14 14 13 12 14
15 13 10 9 7 4 3 1 2 2 8 7 4 6 6 2 4 3 5 3 4 3 3 7 9 6 5 5 5 3 3 5 6 3 12 9 12 12 17 11 11 12 12 12 12
14 12 10 8 6 2 2 5 3 0 1 7 6 5 4 5 1 4 3 3 5 5 6 8 1 4 3 7 8 2 4 4 5 3 6 4 7 8 9 17 17 16 11 11 12
14 12 10 8 4 1 4 2 4 5 4 8 6 3 4 2 4 4 4 2 5 8 6 8 4 3 5 4 3 2 1 3 7 1 2 2 4 3 6 9 16 14 14 15 17
13 11 9 2 3 1 2 5 3 3 4 8 5 3 7 5 3 10 6 9 5 2 5 0 4 6 7 6 3 5 10 7 5 4 6 8 6 2 4 8 16 14 16 16 16
13 10 6 1 1 7 6 6 3 7 1 5 5 8 5 9 8 8 9 9 3 8 7 3 4 5 3 6 3 8 5 5 5 3 5 5 3 4 5 5 7 9 13 18 20
15 11 5 1 4 4 4 4 6 4 4 6 3 5 5 7 6 6 6 8 4 3 6 6 3 5 5 5 8 10 7 6 7 7 3 3 4 2 2 3 5 10 13 13 16
21 4 7 5 2 5 3 6 2 2 0 2 3 2 5 6 5 6 3 5 7 6 5 4 7 6 8 3 3 4 4 6 2 0 5 6 3 4 3 5 5 6 8 12 17
14 1 2 3 5 2 6 4 7 5 2 1 2 4 4 3 4 5 3 2 2 3 6 3 4 3 3 3 3 6 6 2 5 3 1 2 2 6 1 6 5 7 11 14 15
2 3 3 2 6 5 6 5 4 3 4 3 3 0 1 2 3 3 3 1 2 3 2 4 1 1 4 5 5 6 1 4 4 2 2 4 3 5 6 8 4 8 10 9 9
3 3 2 2 2 6 4 7 5 1 3 4 4 3 2 1 2 2 2 1 3 2 4 4 3 3 2 2 2 5 4 5 4 3 4 3 6 1 3 3 6 6 5 7 9
2 2 3 2 4 1 3 6 4 4 3 2 4 3 5 4 2 2 3 3 4 7 4 2 5 1 3 2 2 1 3 4 6 2 1 3 8 2 4 2 4 6 5 6 3
2 3 3 4 2 2 4 1 3 3 3 4 4 4 3 5 2 3 3 1 7 6 8 6 1 3 7 6 3 2 2 4 5 3 4 5 7 2 4 5 4 4 4 5 4
3 4 6 5 1 3 1 2 2 0 4 4 4 4 3 3 1 5 5 3 1 4 8 8 3 7 7 6 4 3 4 3 6 4 4 7 7 7 7 6 6 5 5 1 2
5 1 2 4 4 4 2 1 3 4 1 4 1 5 7 5 1 3 2 1 1 8 4 6 5 6 6 6 4 5 6 8 7 5 6 5 7 8 7 7 5 4 5 4 4
3 4 5 3 4 5 2 1 3 3 7 5 5 7 6 8 9 9 7 4 6 3 5 1 3 5 3 5 6 5 6 5 4 4 7 6 12 7 6 4 5 6 5 4 4
3 1 4 4 4 2 3 2 4 4 6 6 9 7 5 10 9 7 7 3 4 10 7 6 6 4 5 1 2 6 9 10 6 5 7 7 11 4 4 7 7 7 6 4 5
Wind_Direction
299 304 309 315 317 313 312 310 313 318 322 317 316 318 322 330 323 91 242 224 184 239 166 137 75 98 74 105 101 134 74 177 207 165 238 170 158 262 69 133 247 202 183 193 159
305 308 309 314 308 308 309 308 309 312 316 313 314 320 326 338 323 247 248 208 199 136 114 128 125 114 72 117 63 102 130 205 204 201 211 205 179 165 149 167 240 227 225 192 191
306 307 309 303 301 305 305 302 300 305 312 312 318 324 322 335 333 250 208 182 181 172 129 112 109 113 109 125 179 168 176 212 234 222 221 198 194 191 144 217 206 207 192 189 190
305 302 298 296 300 301 297 296 298 305 315 317 321 322 319 27 141 18 16 160 164 147 93 94 82 104 123 180 177 164 231 183 239 215 167 222 165 201 187 227 227 215 190 189 208
300 299 298 296 294 295 293 295 298 306 312 315 321 325 342 354 251 161 102 128 114 127 140 129 126 140 166 185 142 191 247 180 246 254 230 153 215 198 225 233 223 154 181 208 221
300 297 297 292 294 297 297 294 295 303 305 312 320 324 352 300 231 193 133 138 138 122 145 135 183 201 151 195 169 204 226 251 275 248 218 178 182 158 252 185 181 174 197 211 218
303 295 291 292 303 305 298 291 293 297 298 307 311 301 257 237 135 94 159 179 179 162 152 204 172 142 145 245 228 180 263 305 238 218 190 142 271 229 237 150 180 200 207 228 230
305 300 298 306 304 302 301 300 292 291 290 287 279 257 250 229 173 270 162 250 218 207 159 160 144 119 208 305 10 347 56 10 318 360 16 359 265 266 197 169 232 195 218 213 208
309 299 299 302 306 312 309 298 297 282 244 193 147 173 275 322 265 226 160 200 155 151 187 116 106 109 30 79 12 12 35 321 331 304 128 169 274 300 61 189 261 345 333 318 343
316 308 302 308 319 321 320 312 73 143 143 177 254 348 258 283 283 150 209 170 182 116 84 66 51 47 23 53 268 315 4 306 249 277 9 331 350 342 4 55 26 15 4 348 338
325 313 311 320 322 331 346 285 346 9 155 217 198 256 287 293 265 187 158 128 97 53 74 357 70 21 291 250 237 119 153 260 255 289 80 62 41 20 25 35 43 24 9 1 344
328 322 317 314 312 324 278 43 223 200 315 235 270 276 274 291 338 317 125 108 73 82 114 41 59 317 317 55 86 81 74 339 290 18 94 70 34 28 36 47 47 29 11 356 343
329 323 318 311 325 263 238 235 64 181 191 297 200 212 255 142 155 302 120 133 102 63 79 108 282 314 29 37 34 355 74 318 256 55 65 100 46 2 16 33 21 15 10 360 342
324 317 311 312 309 237 261 242 301 184 54 319 342 6 29 198 66 16 18 58 61 148 122 94 335 26 25 44 57 298 96 285 279 54 198 38 181 318 340 360 7 358 356 347 343
319 310 304 282 276 253 271 321 299 68 69 329 343 288 356 65 304 352 354 33 65 42 100 57 22 15 31 325 317 250 310 260 240 199 119 347 87 311 15 349 348 342 344 344 346
321 310 301 177 233 249 308 317 54 43 298 2 4 348 36 17 10 334 24 32 66 66 30 78 337 77 322 306 352 293 332 21 44 85 69 304 112 343 11 338 333 338 345 346 346
322 299 238 177 232 301 305 48 39 106 342 340 347 4 71 11 32 33 40 29 52 54 14 340 18 341 45 22 346 23 32 1 21 21 216 299 60 196 289 19 344 332 340 351 347
324 245 218 230 310 354 58 53 130 233 265 317 25 13 74 1 9 13 60 29 10 60 69 50 336 16 325 49 267 349 87 130 167 346 281 340 104 213 200 106 13 341 329 354 357
321 244 263 261 196 115 74 64 199 204 191 103 73 67 354 14 93 56 53 118 14 39 120 90 277 327 48 12 80 325 37 189 108 26 33 264 294 264 147 85 8 1 4 4 358
358 2 283 100 155 71 76 222 207 233 129 76 156 82 232 340 72 72 160 241 130 57 103 199 330 28 306 35 13 90 214 43 8 111 297 285 231 236 342 340 355 17 10 6 1
46 43 289 129 79 54 162 223 210 212 126 131 180 149 196 187 166 157 157 209 169 105 86 123 118 275 72 68 204 2 13 48 111 116 169 291 264 190 234 296 327 344 349 7 360
66 24 334 74 61 21 164 196 185 158 98 110 116 137 186 176 159 134 148 176 170 153 147 136 140 240 194 310 15 119 143 118 114 244 178 151 273 190 218 244 310 322 360 10 50
44 263 347 67 148 262 265 204 158 127 159 155 164 165 191 187 141 154 171 178 162 154 169 184 21 7 353 3 360 167 201 124 102 79 209 155 264 214 267 288 300 322 351 350 356
46 2 331 46 23 106 16 212 189 137 163 147 163 120 122 195 235 181 186 225 213 171 129 102 135 161 199 211 169 192 208 166 134 137 195 227 278 269 266 271 297 310 304 264 265
24 349 182 321 336 355 318 267 176 216 205 147 171 192 167 182 192 224 196 221 82 149 92 127 196 175 238 241 206 219 206 187 187 195 172 230 226 242 240 246 247 246 280 261 214
53 21 353 296 302 315 359 29 239 243 159 238 191 205 178 166 183 207 174 186 204 183 152 19 207 163 265 253 229 247 246 217 216 212 255 264 284 231 240 215 266 258 251 263 233
326 337 102 290 336 14 251 359 296 339 246 204 193 135 175 223 200 208 186 178 185 167 182 154 138 117 254 329 97 298 222 193 206 205 168 195 227 194 237 233 242 258 240 251 270